Location: Mauries
(43.6188°N, 0.3322°W)
Time: 19:41:56
(UTC+00:00)

Cosmos 2082 Rocket - Pass Details

Date: 14 January 2026
Orbit: 832 x 853 km, 71.0° (Epoch: 11 February)

Event Time Altitude Azimuth Distance (km) Brightness Sun altitude
Exits shadow 05:08:52 - 354° (N) 2,659 4.7 -25.4°
Reaches altitude 10° 05:09:31 10° 358° (N) 2,470 4.5 -25.3°
Maximum altitude 05:13:56 23° 50° (NE) 1,735 4.2 -24.5°
Drops below altitude 10° 05:18:21 10° 101° (ESE) 2,471 5.7 -23.7°
Sets 05:21:20 0° 116° (ESE) 3,406 6.6 -23.2°
